Погода в Болгаре

Россия / Республика Татарстан     54°58′29″N   49°01′49″E
темп.,
°C
ветер,
м/с
пор.,
м/с
влажн.,
%
обл.,
%
осадки,
мм/ч
давл.,
гПа
погр.,
м
24 января, пн
пн2400:00−8ююв2396100 0.4 1034102
03:00−9юв1194100 0.6 103543
06:00−9в2293100 0.1 103532
09:00−11в229186 0.1 103610
12:00−11в119098 0.0 103720
15:00−12в229190 0.0 103610
18:00−15всв1195100 0.0 10369
21:00−17св119947 0.0 10369
25 января, вт
вт2500:00−19в01100100 0.0 10359
03:00−20ююв1110065 0.0 10349
06:00−21ююв1110082 0.0 10339
09:00−21ю119956 0.0 103216
12:00−15ю24935 0.0 102987
15:00−16ю12965 0.0 102810
18:00−19ююв229956 0.0 102710
21:00−17ю2597100 0.0 102667
26 января, ср
ср2600:00−16ю379757 0.0 102489
03:00−18ю229890 0.0 102314
06:00−18ю2210095 0.0 102218
09:00−17ю249999 0.1 102169
12:00−13ю239598 0.1 1020124
15:00−11ююв1195100 0.1 101939
18:00−10юз1195100 0.1 101824
21:00−10зюз2294100 0.2 101832
27 января, чт
чт2700:00−11зюз2295100 0.1 101828
03:00−11зюз239681 0.1 101855
06:00−17зюз229962 0.0 101910
09:00−17юз2298100 0.0 102019
12:00−12ююз3492100 0.0 1019174
15:00−12ююз229499 0.0 101911
18:00−17зюз229944 0.0 10199
21:00−19зюз1110084 0.0 10199
28 января, пт
пт2800:00−20зюз11100100 0.0 10199
03:00−21зюз11100100 0.1 10189
06:00−21зюз11100100 0.0 10189
09:00−21юз11100100 0.1 101818
12:00−17ююз119788 0.0 101879
15:00−17ююв119639 0.0 10179
18:00−20ю1110078 0.0 10179
21:00−22ююв11100100 0.0 10169